Regional Weather Roundup
Issued by NWS

Home | Current Version | Previous Version | Text Only | Print | Product List | Glossary On
Versions: 1 2 3 4 5 6 7 8 9 10 11 12 13 14 15 16 17 18 19 20 21 22 23 24 25 26 27 28 29 30 31 32 33 34 35 36 37 38 39 40 41 42 43 44 45 46 47 48 49 50
000
ASUS46 KSEW 072210
RWRWA

WASHINGTON REGIONAL WEATHER ROUNDUP
NATIONAL WEATHER SERVICE SEATTLE WA
200 PM PST WED DEC 07 2016

NOTE:"FAIR" INDICATES FEW OR NO CLOUDS BELOW 12,000 FEET WITH NO
SIGNIFICANT WEATHER AND/OR OBSTRUCTIONS TO VISIBILITY.

WAZ507-509-555>559-072300-
SEATTLE, TACOMA, EVERETT, AND VICINITY

CITY           SKY/WX    TMP DP  RH WIND       PRES   REMARKS
EVERETT        SUNNY     33  24  69 NW5       30.40F
BOEING FIELD   SUNNY     39  23  52 VRB6      30.40F
RENTON         SUNNY     40  21  46 NE5       30.39F
SEATAC AIRPORT MOSUNNY   38  23  55 NE10      30.38F
JBLM-MCCHORD   SUNNY     39  24  55 VRB6      30.36F
PUYALLUP       FAIR      37  23  56 N5        30.35F
BREMERTON      SUNNY     36  21  55 N13       30.41F
JBLM-FT LEWIS  SUNNY     37  24  59 N12       30.35F
TACOMA NARROWS SUNNY     37  23  56 N10       30.37F
$$

WAZ001-503-506-510-514-515-072300-
NORTH INTERIOR

CITY           SKY/WX    TMP DP  RH WIND       PRES   REMARKS
BELLINGHAM     SUNNY     31   6  35 NE14G23   30.45F WCI  21
FRIDAY HARBOR  SUNNY     35  16  45 N7        30.45F
EASTSOUND      FLURRIES  32  10  40 E8        30.46F
PORT ANGELES   CLOUDY    32  23  69 E8        30.42F
EDIZ HOOK      CLOUDY    34  24  66 E6        30.44S
PORT TOWNSEND  FAIR      34  23  64 CALM      30.44F
NAS WHIDBEY    MOSUNNY   37  16  42 NE9       30.48F
ARLINGTON      SUNNY     36  18  48 N5        30.44F
BURLINGTON     NOT AVBL
$$

WAZ020-022-039-040-504-511-512-072300-
SOUTHWEST INTERIOR

CITY           SKY/WX    TMP DP  RH WIND       PRES   REMARKS
SHELTON        SUNNY     37  22  54 NE10G21   30.35F
OLYMPIA        SUNNY     39  25  57 NE13      30.35F
CHEHALIS       FAIR      39  28  65 NE9       30.34F
KELSO          SUNNY     38  30  73 NW6       30.33F
VANCOUVER      MOSUNNY   38  20  48 E16G24    30.31F
SCAPPOOSE, OR  MOSUNNY   40  23  50 NE9       30.31F
PORTLAND, OR   PTSUNNY   38  21  50 E23G33    30.29F
$$

WAZ021-516-517-072300-
WASHINGTON COAST

CITY           SKY/WX    TMP DP  RH WIND       PRES   REMARKS
FORKS          SUNNY     35  23  61 NE12      30.33F WCI  27
HOQUIAM        SUNNY     38  22  52 NE20G26   30.32F
ASTORIA, OR    MOSUNNY   41  27  57 E18       30.26F
$$

WAZ019-023-024-040-567>569-072300-
CASCADE MOUNTAINS AND COLUMBIA GORGE

CITY           SKY/WX    TMP DP  RH WIND       PRES   REMARKS
STAMPEDE PASS  SUNNY     15  13  91 VRB6      30.22F
TROUTDALE, OR  MOSUNNY   37  24  59 E21       30.31F
THE DALLES, OR SUNNY     35  22  58 SE13      30.46F WCI  26
$$

WAZ026-027-041>044-520-521-072300-
EAST SLOPES

CITY           SKY/WX    TMP DP  RH WIND       PRES   REMARKS
OMAK           SUNNY     24   4  42 N17       30.51S WCI  11
WENATCHEE      CLOUDY    25  11  55 W7        30.49R
ELLENSBURG     CLOUDY    29   8  41 E8        30.41F
YAKIMA         CLOUDY    33  14  45 CALM      30.46F
$$

WAZ028-034-035-072300-
COLUMBIA BASIN

CITY           SKY/WX    TMP DP  RH WIND       PRES   REMARKS
EPHRATA        PTSUNNY   23   8  52 NW9       30.47S
MOSES LAKE     MOSUNNY   27  13  55 N9        30.48F
PASCO          MOSUNNY   31  19  61 N13       30.52F WCI  21
HERMISTON, OR  SUNNY     32  21  64 E9        30.46F
$$

WAZ036>038-072300-
NORTHEAST WASHINGTON

CITY           SKY/WX    TMP DP  RH WIND       PRES   REMARKS
SPOKANE GEIGER PTSUNNY   26  13  57 E5        30.40R
SPOKANE FELTS  PTSUNNY   29  14  53 NE5       30.43S
FAIRCHILD AFB  CLOUDY    25  15  65 E6        30.38S
COEURDALENE,ID MOSUNNY   25  13  60 N13       30.41S WCI  14
DEER PARK      MOSUNNY   27  11  51 NE8       30.42S
$$

WAZ029>033-072300-
SOUTHEAST WASHINGTON

CITY           SKY/WX    TMP DP  RH WIND       PRES   REMARKS
PULLMAN        SUNNY     24  17  74 SE6       30.39S
LEWISTON, ID   SUNNY     29  19  66 E5        30.44F
WALLA WALLA    SUNNY     25  17  72 CALM      30.44F
PENDLETON, OR  MOSUNNY   23  17  78 NE8       30.41S
$$



USA.gov is the U.S. government's official web portal to all federal, state and local government web resources and services.